• In Deutschland
  • Länderverzeichnis
  • Für 7 Tage
  • Wassertemperatur
  • Satellitenkarten
  • Wetterkarte
  • Widgets
  • user-avatar
    Anmelden

    Stündliche Wetter Koszalin

    Heute, 20 September, Donnerstag

    Zeit Temperatur Niederschläge Wind Luftdruck Luftfeuchtigkeit
    00:00 +20°C° 0 mm 4 m/S 759 mmHg 68%
    01:00 +20°C° 0 mm 5 m/S 759 mmHg 70%
    02:00 +19°C° 0 mm 4 m/S 759 mmHg 73%
    03:00 +19°C° 0 mm 4 m/S 759 mmHg 77%
    04:00 +18°C° 0 mm 3 m/S 759 mmHg 81%
    05:00 +19°C° 0 mm 3 m/S 759 mmHg 80%
    06:00 +19°C° 0 mm 3 m/S 760 mmHg 79%
    07:00 +19°C° 0 mm 4 m/S 760 mmHg 78%
    08:00 +21°C° 0 mm 4 m/S 760 mmHg 72%
    09:00 +22°C° 0 mm 4 m/S 760 mmHg 66%
    10:00 +23°C° 0 mm 4 m/S 760 mmHg 59%
    11:00 +25°C° 0 mm 4 m/S 760 mmHg 56%
    12:00 +26°C° 0 mm 4 m/S 760 mmHg 52%
    13:00 +27°C° 0 mm 4 m/S 760 mmHg 49%
    14:00 +27°C° 0 mm 4 m/S 759 mmHg 49%
    15:00 +27°C° 0 mm 3 m/S 759 mmHg 50%
    16:00 +27°C° 0 mm 3 m/S 759 mmHg 51%
    17:00 +25°C° 0 mm 3 m/S 758 mmHg 57%
    18:00 +24°C° 0 mm 2 m/S 758 mmHg 63%
    19:00 +21°C° 0 mm 2 m/S 758 mmHg 68%
    20:00 +21°C° 0 mm 3 m/S 758 mmHg 69%
    21:00 +20°C° 0 mm 3 m/S 758 mmHg 70%
    22:00 +20°C° 0 mm 4 m/S 757 mmHg 71%
    23:00 +20°C° 0 mm 4 m/S 757 mmHg 72%

    Morgen, 21 September, Freitag

    Zeit Temperatur Niederschläge Wind Luftdruck Luftfeuchtigkeit
    00:00 +20°C° 0 mm 4 m/S 757 mmHg 73%
    01:00 +20°C° 0 mm 4 m/S 757 mmHg 74%
    02:00 +20°C° 0 mm 5 m/S 756 mmHg 74%
    03:00 +20°C° 0 mm 5 m/S 756 mmHg 74%
    04:00 +20°C° 0 mm 5 m/S 755 mmHg 75%
    05:00 +20°C° 0 mm 6 m/S 755 mmHg 73%
    06:00 +21°C° 0 mm 6 m/S 754 mmHg 71%
    07:00 +21°C° 0 mm 7 m/S 754 mmHg 69%
    08:00 +23°C° 0 mm 7 m/S 754 mmHg 62%
    09:00 +24°C° 0 mm 8 m/S 753 mmHg 56%
    10:00 +27°C° 0 mm 9 m/S 753 mmHg 49%
    11:00 +28°C° 0 mm 9 m/S 752 mmHg 46%
    12:00 +29°C° 0 mm 9 m/S 751 mmHg 43%
    13:00 +31°C° 0 mm 9 m/S 750 mmHg 40%
    14:00 +29°C° 0.1 mm 9 m/S 750 mmHg 41%
    15:00 +29°C° 0.1 mm 9 m/S 750 mmHg 42%
    16:00 +28°C° 0.1 mm 9 m/S 749 mmHg 44%
    17:00 +23°C° 0.9 mm 8 m/S 750 mmHg 55%
    18:00 +17°C° 0.9 mm 8 m/S 751 mmHg 66%
    19:00 +12°C° 0.9 mm 8 m/S 752 mmHg 77%
    20:00 +12°C° 0.2 mm 8 m/S 753 mmHg 77%
    21:00 +12°C° 0.2 mm 8 m/S 754 mmHg 76%
    22:00 +11°C° 0.2 mm 8 m/S 755 mmHg 76%
    23:00 +11°C° 0 mm 8 m/S 755 mmHg 75%

    übermorgen, 22 September, Samstag

    Zeit Temperatur Niederschläge Wind Luftdruck Luftfeuchtigkeit
    00:00 +11°C° 0 mm 8 m/S 755 mmHg 74%
    01:00 +10°C° 0 mm 8 m/S 755 mmHg 72%
    02:00 +10°C° 0 mm 9 m/S 755 mmHg 70%
    03:00 +10°C° 0 mm 9 m/S 755 mmHg 67%
    04:00 +9°C° 0 mm 10 m/S 755 mmHg 65%
    05:00 +10°C° 0.2 mm 9 m/S 755 mmHg 66%
    06:00 +10°C° 0.2 mm 9 m/S 756 mmHg 67%
    07:00 +11°C° 0.2 mm 9 m/S 756 mmHg 68%
    08:00 +12°C° 0.3 mm 9 m/S 757 mmHg 66%
    09:00 +13°C° 0.3 mm 9 m/S 757 mmHg 63%
    10:00 +13°C° 0.3 mm 8 m/S 758 mmHg 60%
    11:00 +15°C° 0.3 mm 8 m/S 758 mmHg 59%
    12:00 +15°C° 0.3 mm 8 m/S 757 mmHg 57%
    13:00 +16°C° 0.3 mm 8 m/S 757 mmHg 55%
    14:00 +16°C° 0.6 mm 9 m/S 757 mmHg 57%
    15:00 +15°C° 0.6 mm 9 m/S 757 mmHg 59%
    16:00 +15°C° 0.6 mm 9 m/S 757 mmHg 61%
    17:00 +13°C° 0.4 mm 9 m/S 757 mmHg 66%
    18:00 +12°C° 0.4 mm 8 m/S 757 mmHg 70%
    19:00 +11°C° 0.4 mm 8 m/S 757 mmHg 74%
    20:00 +10°C° 0.3 mm 8 m/S 757 mmHg 74%
    21:00 +10°C° 0.3 mm 8 m/S 757 mmHg 74%
    22:00 +10°C° 0.3 mm 8 m/S 758 mmHg 74%
    23:00 +10°C° 0.3 mm 8 m/S 758 mmHg 74%

    23 September, Sonntag

    Zeit Temperatur Niederschläge Wind Luftdruck Luftfeuchtigkeit
    00:00 +9°C° 0.3 mm 8 m/S 758 mmHg 74%
    01:00 +9°C° 0.3 mm 8 m/S 758 mmHg 75%
    02:00 +9°C° 0.2 mm 8 m/S 758 mmHg 76%
    03:00 +9°C° 0.2 mm 8 m/S 758 mmHg 77%
    04:00 +7°C° 0.2 mm 8 m/S 758 mmHg 78%
    05:00 +9°C° 0.3 mm 8 m/S 758 mmHg 78%
    06:00 +9°C° 0.3 mm 8 m/S 758 mmHg 78%
    07:00 +9°C° 0.3 mm 8 m/S 758 mmHg 77%
    08:00 +10°C° 0.2 mm 8 m/S 758 mmHg 72%
    09:00 +11°C° 0.2 mm 7 m/S 758 mmHg 66%
    10:00 +12°C° 0.2 mm 7 m/S 758 mmHg 61%
    11:00 +14°C° 0.1 mm 7 m/S 757 mmHg 57%
    12:00 +15°C° 0.1 mm 6 m/S 757 mmHg 52%
    13:00 +16°C° 0.1 mm 6 m/S 756 mmHg 48%
    14:00 +15°C° 0 mm 5 m/S 755 mmHg 52%
    15:00 +14°C° 0 mm 4 m/S 755 mmHg 56%
    16:00 +13°C° 0 mm 3 m/S 754 mmHg 60%
    17:00 +12°C° 0.4 mm 4 m/S 753 mmHg 66%
    18:00 +12°C° 0.4 mm 4 m/S 752 mmHg 72%
    19:00 +10°C° 0.4 mm 5 m/S 751 mmHg 77%
    20:00 +9°C° 1.8 mm 6 m/S 749 mmHg 81%
    21:00 +9°C° 1.8 mm 7 m/S 748 mmHg 85%
    22:00 +9°C° 1.8 mm 8 m/S 746 mmHg 89%
    23:00 +10°C° 3 mm 9 m/S 744 mmHg 90%

    24 September, Montag

    Zeit Temperatur Niederschläge Wind Luftdruck Luftfeuchtigkeit
    00:00 +11°C° 3 mm 9 m/S 742 mmHg 91%
    01:00 +11°C° 3 mm 9 m/S 740 mmHg 93%
    02:00 +12°C° 3.1 mm 9 m/S 739 mmHg 91%
    03:00 +13°C° 3.1 mm 8 m/S 737 mmHg 90%
    04:00 +15°C° 3.1 mm 8 m/S 736 mmHg 89%
    05:00 +13°C° 0.6 mm 8 m/S 736 mmHg 89%
    06:00 +14°C° 0.6 mm 7 m/S 736 mmHg 88%
    07:00 +12°C° 0.6 mm 7 m/S 736 mmHg 88%
    08:00 +11°C° 1.8 mm 10 m/S 737 mmHg 88%
    09:00 +10°C° 1.8 mm 13 m/S 738 mmHg 87%
    10:00 +10°C° 1.8 mm 16 m/S 739 mmHg 87%
    11:00 +10°C° 2.1 mm 15 m/S 741 mmHg 86%
    12:00 +9°C° 2.1 mm 15 m/S 743 mmHg 84%
    13:00 +9°C° 2.1 mm 14 m/S 745 mmHg 83%
    14:00 +9°C° 1.1 mm 14 m/S 747 mmHg 82%
    15:00 +9°C° 1.1 mm 14 m/S 749 mmHg 82%
    16:00 +9°C° 1.1 mm 15 m/S 751 mmHg 81%
    17:00 +8°C° 0.5 mm 13 m/S 752 mmHg 78%
    18:00 +8°C° 0.5 mm 12 m/S 753 mmHg 74%
    19:00 +8°C° 0.5 mm 11 m/S 755 mmHg 71%
    20:00 +8°C° 0.1 mm 10 m/S 756 mmHg 71%
    21:00 +7°C° 0.1 mm 9 m/S 756 mmHg 71%
    22:00 +7°C° 0.1 mm 8 m/S 757 mmHg 71%
    23:00 +7°C° 0.1 mm 8 m/S 758 mmHg 70%

    25 September, Dienstag

    Zeit Temperatur Niederschläge Wind Luftdruck Luftfeuchtigkeit
    00:00 +7°C° 0.1 mm 8 m/S 758 mmHg 70%
    01:00 +7°C° 0.1 mm 8 m/S 759 mmHg 70%
    02:00 +6°C° 0.2 mm 7 m/S 759 mmHg 70%
    03:00 +6°C° 0.2 mm 7 m/S 760 mmHg 70%
    04:00 +6°C° 0.2 mm 7 m/S 760 mmHg 70%
    05:00 +6°C° 0.1 mm 7 m/S 761 mmHg 69%
    06:00 +8°C° 0.1 mm 7 m/S 761 mmHg 67%
    07:00 +8°C° 0.1 mm 7 m/S 762 mmHg 65%
    08:00 +9°C° 0 mm 8 m/S 763 mmHg 59%
    09:00 +10°C° 0 mm 8 m/S 763 mmHg 53%
    10:00 +11°C° 0 mm 9 m/S 764 mmHg 47%
    11:00 +11°C° 0 mm 8 m/S 764 mmHg 45%
    12:00 +12°C° 0 mm 8 m/S 765 mmHg 43%
    13:00 +12°C° 0 mm 8 m/S 765 mmHg 41%
    14:00 +12°C° 0 mm 7 m/S 765 mmHg 43%
    15:00 +12°C° 0 mm 7 m/S 765 mmHg 46%
    16:00 +11°C° 0 mm 6 m/S 765 mmHg 48%
    17:00 +10°C° 0 mm 6 m/S 766 mmHg 55%
    18:00 +9°C° 0 mm 5 m/S 766 mmHg 62%
    19:00 +8°C° 0 mm 5 m/S 766 mmHg 70%
    20:00 +8°C° 0 mm 5 m/S 766 mmHg 73%
    21:00 +8°C° 0 mm 5 m/S 766 mmHg 76%
    22:00 +8°C° 0 mm 5 m/S 767 mmHg 80%
    23:00 +8°C° 0 mm 5 m/S 767 mmHg 82%
    Mehr zeigen